星链-3321 (STARLINK-3321 )

导读 | 豆包AI

STARLINK-3321是美国太空探索技术公司Starlink卫星互联网项目的一颗卫星,于2022年1月6日发射升空,属于星链星座组网批次。星链星座旨在构建全球卫星互联网服务,该卫星入轨后承担低轨通信任务,为全球多地提供宽带互联网接入支撑,助力星链系统的全球覆盖能力建设。

Basic Information
目录编号:
50803
目录名称:
STARLINK-3321
国际标识:
2022-001A
轨道中心:
EARTH
卫星名称:
星链-3321
卫星全名:
星链-3321 (STARLINK-3321 )
卫星状态:
已陨落 最后检测时间 2025-02-03
发射日期:
2022-01-06 UTC
国别 :
美国 (US)
星等 :
--
Orbit Information
数据来源 国际轨道数据
星历时间: 2025-02-04T01:42:40+0800
轨道信息已过期404天
半长轴: 6524.724km
偏心率: 0.0001946
轨道倾角: 53.189°
近地点辐角 261.499°
升交点赤经 133.297°
平近点角 143.030°
近地点: 145.319km
远地点: 147.859km
周期: 87.418分钟
每日圈数: 16.472503
Detailed Information
固有亮度:
5
最大亮度:
2.5
卫星平台:
Starlink v1.5
覆盖范围:
全球
运营商:
太空探索技术公司
运营商所在国:
美国
制造商(研发单位):
太空探索技术公司
制造商所在国:
美国
使用方式:
暂无
Satellite Introduction
星链(Starlink)计划是由太空探索技术公司(SpaceX)提出的一个巨型低轨卫星互联网星座项目,计划在2019年至2024年间在太空搭建由约1.2万颗卫星组成的“星链”网络,其中1584颗将部署在地球上空550千米处的近地轨道,并从2020年开始工作。该卫星仍在工作。